EW4281 Weather Reports


time (UTC)temp
C
wind
direction
speed
KPH
gust
KPH
rain 1hr
cm
rain 24hr
cm
rain mn
cm
humidity
%
barometer
mb
20260508014142 19 201 1.6 9.7 0.00 0.00 0.00 12 1009.9
20260508013153 20 218 3.2 11.3 0.00 0.00 0.00 11 1009.9
20260508012211 20 231 3.2 12.9 0.00 0.00 0.00 12 1009.9
20260508011139 21 142 3.2 12.9 0.00 0.00 0.00 11 1009.8
20260508010154 21 229 0.0 11.3 0.00 0.00 0.00 11 1009.9
20260508005211 21 234 1.6 11.3 0.00 0.00 0.00 11 1009.9
20260508004142 22 186 0.0 6.4 0.00 0.00 0.00 11 1010.0
20260508002012 22 214 1.6 11.3 0.00 0.00 0.00 13 1010.2
20260508001028 22 221 1.6 9.7 0.00 0.00 0.00 12 1010.3
20260508000025 22 238 1.6 9.7 0.00 0.00 0.00 13 1010.3
20260507235017 22 278 1.6 11.3 0.00 0.00 0.00 14 1010.3
20260507234038 22 256 3.2 12.9 0.00 0.00 0.00 15 1010.4
20260507233029 22 179 1.6 12.9 0.00 0.00 0.00 16 1010.4
20260507230931 21 309 0.0 4.8 0.00 0.00 0.00 18 1010.6
20260507225909 20 157 0.0 0.0 0.00 0.00 0.00 18 1010.8
20260507224841 20 68 0.0 9.7 0.00 0.00 0.00 17 1010.9
20260507223836 20 291 0.0 14.5 0.00 0.00 0.00 17 1011.1
20260507221713 20 319 1.6 9.7 0.00 0.00 0.00 17 1011.5
20260507220730 20 46 1.6 12.9 0.00 0.00 0.00 16 1011.7
20260507215741 20 340 3.2 14.5 0.00 0.00 0.00 16 1012.0
20260507214754 20 306 1.6 14.5 0.00 0.00 0.00 16 1012.2
20260507213801 20 49 1.6 9.7 0.00 0.00 0.00 17 1012.4
20260507212813 20 283 1.6 11.3 0.00 0.00 0.00 16 1012.7
20260507211830 20 352 3.2 11.3 0.00 0.00 0.00 16 1012.8
20260507205735 20 79 0.0 11.3 0.00 0.00 0.00 13 1013.2
20260507204744 20 0 1.6 12.9 0.00 0.00 0.00 12 1013.5
20260507202612 20 58 0.0 12.9 0.00 0.00 0.00 12 1013.8
20260507200459 19 336 3.2 11.3 0.00 0.00 0.00 13 1014.1
20260507195500 19 7 1.6 16.1 0.00 0.00 0.00 11 1014.2
20260507194459 18 293 1.6 16.1 0.00 0.00 0.00 12 1014.3
20260507192257 19 60 0.0 8.0 0.00 0.00 0.00 14 1014.6
20260507191259 17 52 3.2 17.7 0.00 0.00 0.00 14 1014.7
20260507190320 17 344 3.2 17.7 0.00 0.00 0.00 15 1014.8
20260507185250 16 311 4.8 16.1 0.00 0.00 0.00 16 1015.0
20260507183133 16 46 3.2 19.3 0.00 0.00 0.00 19 1015.2
20260507181029 15 318 3.2 16.1 0.00 0.00 0.00 20 1015.4
20260507180010 15 42 3.2 17.7 0.00 0.00 0.00 25 1015.6
20260507175028 14 314 3.2 20.9 0.00 0.00 0.00 27 1015.9
20260507174030 14 300 3.2 20.9 0.00 0.00 0.00 28 1016.0
20260507173018 14 8 1.6 14.5 0.00 0.00 0.00 32 1016.2
20260507171957 13 293 1.6 14.5 0.00 0.00 0.00 31 1016.4
20260507171000 13 285 1.6 17.7 0.00 0.00 0.00 35 1016.6
20260507165928 12 343 3.2 17.7 0.00 0.00 0.00 37 1016.7
20260507164945 12 312 0.0 12.9 0.00 0.00 0.00 40 1016.8
20260507164010 11 162 1.6 12.9 0.00 0.00 0.00 43 1017.0
20260507162950 11 312 1.6 16.1 0.00 0.00 0.00 45 1017.0
20260507161939 10 11 0.0 12.9 0.00 0.00 0.00 48 1017.2
20260507154638 8 348 0.0 9.7 0.00 0.00 0.00 53 1017.6
20260507153639 8 75 0.0 4.8 0.00 0.00 0.00 54 1017.7
20260507152638 8 70 0.0 1.6 0.00 0.00 0.00 57 1017.7
20260507151648 7 294 0.0 6.4 0.00 0.00 0.00 59 1017.8
20260507150646 6 330 0.0 6.4 0.00 0.00 0.00 59 1017.7
20260507145643 6 318 0.0 4.8 0.00 0.00 0.00 62 1017.7
20260507143507 6 47 0.0 3.2 0.00 0.00 0.00 63 1017.9
20260507142527 6 336 0.0 3.2 0.00 0.00 0.00 65 1018.0
20260507141524 5 326 0.0 0.0 0.00 0.00 0.00 71 1018.2
20260507140454 3 28 0.0 0.0 0.00 0.00 0.00 77 1018.3
20260507135434 3 310 0.0 1.6 0.00 0.00 0.00 75 1018.2
20260507133332 3 268 0.0 0.0 0.00 0.00 0.00 76 1017.7
20260507132353 3 120 0.0 0.0 0.00 0.00 0.00 75 1017.6
20260507131337 3 120 0.0 0.0 0.00 0.00 0.00 76 1017.3
20260507130330 3 120 0.0 0.0 0.00 0.00 0.00 78 1017.2
20260507125339 1 120 0.0 0.0 0.00 0.00 0.00 82 1016.9
20260507114419 0 158 0.0 0.0 0.00 0.00 0.00 86 1015.6
20260507113430 0 158 0.0 0.0 0.00 0.00 0.00 85 1015.7
20260507111207 0 158 0.0 0.0 0.00 0.00 0.00 85 1015.4
20260507110208 0 158 0.0 0.0 0.00 0.00 0.00 84 1015.3
20260507105157 0 158 0.0 0.0 0.00 0.00 0.00 83 1015.3
20260507104124 0 158 0.0 0.0 0.00 0.00 0.00 82 1015.3
20260507103133 1 158 0.0 0.0 0.00 0.00 0.00 81 1015.4
20260507102105 1 158 0.0 0.0 0.00 0.00 0.00 80 1015.4
20260507101117 1 163 0.0 0.0 0.00 0.00 0.00 79 1015.4
20260507095018 0 146 0.0 0.0 0.00 0.00 0.00 80 1015.3
20260507094043 0 146 0.0 0.0 0.00 0.00 0.00 78 1015.4
20260507093014 1 146 0.0 0.0 0.00 0.00 0.00 78 1015.2
20260507090834 0 146 0.0 0.0 0.00 0.00 0.00 84 1015.2
20260507085847 0 146 0.0 0.0 0.00 0.00 0.00 84 1015.1
20260507084832 1 146 0.0 0.0 0.00 0.00 0.00 85 1014.9
20260507083854 1 146 0.0 0.0 0.00 0.00 0.00 84 1014.9
20260507082841 1 146 0.0 0.0 0.00 0.00 0.00 83 1014.7
20260507081835 1 146 0.0 0.0 0.00 0.00 0.00 81 1014.8
20260507080817 1 146 0.0 0.0 0.00 0.00 0.00 81 1014.6
20260507074728 2 322 0.0 0.0 0.00 0.00 0.00 78 1014.5
20260507073721 2 323 0.0 0.0 0.00 0.00 0.00 78 1014.5
20260507072647 2 323 0.0 0.0 0.00 0.00 0.00 77 1014.4
20260507070440 2 323 0.0 0.0 0.00 0.00 0.00 80 1014.2
20260507064251 2 323 0.0 0.0 0.00 0.00 0.00 81 1014.2
20260507063259 2 323 0.0 0.0 0.00 0.00 0.00 80 1013.9
20260507062259 2 323 0.0 0.0 0.00 0.00 0.00 80 1013.9
20260507061308 2 323 0.0 0.0 0.00 0.00 0.00 79 1013.9
20260507060317 2 323 0.0 0.0 0.00 0.00 0.00 78 1013.8
20260507055258 2 323 0.0 0.0 0.00 0.00 0.00 78 1013.7
20260507053158 3 323 0.0 0.0 0.00 0.00 0.00 76 1013.5
20260507052216 3 323 0.0 0.0 0.00 0.00 0.00 73 1013.4
20260507051223 3 323 0.0 0.0 0.00 0.00 0.00 74 1013.4
20260507050229 3 323 0.0 0.0 0.00 0.00 0.00 71 1013.4
20260507045220 3 323 0.0 0.0 0.00 0.03 0.00 67 1013.3
20260507044218 4 321 0.0 0.0 0.00 0.03 0.00 64 1013.2
20260507042013 5 65 0.0 0.0 0.00 0.03 0.00 60 1012.8
20260507041013 6 65 0.0 0.0 0.00 0.03 0.00 58 1012.6
20260507040011 6 279 0.0 0.0 0.00 0.03 0.00 55 1012.4
20260507035018 6 279 0.0 0.0 0.00 0.03 0.00 54 1012.2
20260507033952 7 279 0.0 0.0 0.00 0.03 0.00 51 1012.1
20260507032938 6 211 0.0 0.0 0.00 0.03 0.00 51 1012.0
20260507031905 7 211 0.0 0.0 0.00 0.05 0.00 50 1011.6
20260507025749 8 202 0.0 0.0 0.00 0.20 0.00 46 1011.0
20260507024718 8 269 0.0 0.0 0.00 0.28 0.00 45 1010.6
20260507023659 8 186 0.0 4.8 0.00 0.28 0.00 44 1010.3
20260507022631 8 236 0.0 1.6 0.00 0.28 0.00 43 1010.1
20260507021607 9 240 0.0 0.0 0.00 0.28 0.00 42 1009.7
20260507015458 11 271 0.0 9.7 0.00 0.30 0.00 38 1009.5